Location: Colonia Mina de C?rbuni
(46.1667°N, 22.7167°E)
Time: 19:58:59
(UTC+00:00)

deb Explorer IX - Pass Details

Date: 19 April 2024
Orbit: 513 x 891 km, 38.7° (Epoch: 21 May)

Event Time Altitude Azimuth Distance (km) Brightness Sun altitude
Rises 09:36:04 0° 220° (SW) 3,403 ? 53.5°
Reaches altitude 10° 09:38:59 10° 208° (SSW) 2,514 ? 53.7°
Maximum altitude 09:43:47 25° 155° (SSE) 1,735 ? 54.0°
Drops below altitude 10° 09:48:43 10° 103° (ESE) 2,586 ? 54.3°
Sets 09:51:46 0° 91° (E) 3,530 ? 54.4°
